FW2335 Weather Reports


time (UTC)temp
F
wind
direction
speed
knots
gust
knots
rain 1hr
in
rain 24hr
in
rain mn
in
humidity
%
barometer
mb
20210723164021 83 225 7.0 11.3 0.00 0.00 0.00 73 1020.5
20210723163521 83 225 4.3 8.7 0.00 0.00 0.00 74 1020.6
20210723163021 83 203 5.2 10.4 0.00 0.00 0.00 75 1020.7
20210723162521 83 225 5.2 7.8 0.00 0.00 0.00 74 1020.7
20210723162020 82 225 6.1 8.7 0.00 0.00 0.00 74 1020.7
20210723161521 82 225 6.1 10.4 0.00 0.00 0.00 74 1020.7
20210723161020 82 225 2.6 6.1 0.00 0.00 0.00 76 1020.8
20210723160521 82 225 5.2 11.3 0.00 0.00 0.00 76 1020.8
20210723160020 82 225 6.1 11.3 0.00 0.00 0.00 75 1020.7
20210723155531 81 225 7.8 12.2 0.00 0.00 0.00 76 1020.8
20210723155021 82 225 6.1 11.3 0.00 0.00 0.00 77 1020.7
20210723154522 81 203 6.1 12.2 0.00 0.00 0.00 77 1020.7
20210723154021 81 225 6.1 12.2 0.00 0.00 0.00 78 1020.8
20210723153521 80 225 7.8 13.0 0.00 0.00 0.00 77 1020.7
20210723153021 80 225 8.7 13.0 0.00 0.00 0.00 77 1020.7
20210723152521 81 225 6.1 10.4 0.00 0.00 0.00 78 1020.8
20210723152021 80 203 6.1 13.0 0.00 0.00 0.00 78 1020.8
20210723151521 80 225 7.0 12.2 0.00 0.00 0.00 78 1020.8
20210723151021 80 203 7.0 13.0 0.00 0.00 0.00 78 1020.8
20210723150522 80 225 7.8 12.2 0.00 0.00 0.00 78 1020.8
20210723150021 80 203 7.0 13.0 0.00 0.00 0.00 79 1020.9
20210723145601 79 225 7.0 11.3 0.00 0.00 0.00 78 1020.9
20210723145021 79 203 7.0 11.3 0.00 0.00 0.00 79 1020.9
20210723144525 79 225 7.0 12.2 0.00 0.00 0.00 79 1020.9
20210723144026 79 225 7.8 12.2 0.00 0.00 0.00 80 1021.0
20210723143525 78 225 8.7 13.0 0.00 0.00 0.00 80 1020.9
20210723143021 78 225 7.0 12.2 0.00 0.00 0.00 80 1020.9
20210723142522 78 225 9.6 15.6 0.00 0.00 0.00 81 1020.8
20210723142021 78 225 11.3 17.4 0.00 0.00 0.00 81 1020.9
20210723141523 78 225 11.3 15.6 0.00 0.00 0.00 81 1020.8
20210723141021 78 225 9.6 13.9 0.00 0.00 0.00 81 1020.9
20210723140520 78 225 10.4 16.5 0.00 0.00 0.00 80 1020.9
20210723140021 78 225 12.2 21.7 0.00 0.00 0.00 80 1020.8
20210723135603 78 225 9.6 15.6 0.00 0.00 0.00 80 1020.7
20210723135020 78 203 8.7 13.9 0.00 0.00 0.00 80 1020.6
20210723134521 78 225 7.8 15.6 0.00 0.00 0.00 80 1020.6
20210723134021 77 225 8.7 15.6 0.00 0.00 0.00 80 1020.5
20210723133521 77 225 8.7 15.6 0.00 0.00 0.00 80 1020.4
20210723133021 77 225 9.6 17.4 0.00 0.00 0.00 81 1020.4
20210723132520 77 225 7.0 10.4 0.00 0.00 0.00 81 1020.3
20210723132021 77 203 6.1 13.9 0.00 0.00 0.00 81 1020.3
20210723131523 77 203 3.5 7.8 0.00 0.00 0.00 82 1020.3
20210723131021 77 203 3.5 9.6 0.00 0.00 0.00 82 1020.2
20210723130521 76 203 5.2 10.4 0.00 0.00 0.00 82 1020.2
20210723130024 76 203 5.2 9.6 0.00 0.00 0.00 82 1020.2
20210723125528 76 203 4.3 7.8 0.00 0.00 0.00 83 1020.0
20210723125024 75 203 5.2 11.3 0.00 0.00 0.00 83 1020.1
20210723124521 75 225 3.5 7.0 0.00 0.00 0.00 83 1020.0
20210723124021 75 180 3.5 8.7 0.00 0.00 0.00 83 1019.9
20210723123520 75 180 3.5 7.0 0.00 0.00 0.00 83 1019.9
20210723123023 75 180 3.5 6.1 0.00 0.00 0.00 83 1019.9
20210723122520 74 203 3.5 6.1 0.00 0.00 0.00 83 1020.0
20210723122020 74 180 3.5 5.2 0.00 0.00 0.00 84 1020.0
20210723121523 74 203 2.6 5.2 0.00 0.00 0.00 84 1020.0
20210723121020 74 203 3.5 7.0 0.00 0.00 0.00 84 1019.9
20210723120520 74 203 3.5 6.1 0.00 0.00 0.00 84 1020.0
20210723120021 74 203 3.5 6.1 0.00 0.00 0.00 84 1019.9
20210723115611 74 203 2.6 7.8 0.00 0.00 0.00 84 1020.0
20210723115020 74 203 3.5 6.1 0.00 0.00 0.00 84 1020.0
20210723114520 74 203 2.6 7.0 0.00 0.00 0.00 84 1020.0
20210723114021 74 203 1.7 6.1 0.00 0.00 0.00 84 1020.0
20210723113521 74 203 2.6 4.3 0.00 0.00 0.00 84 1019.8
20210723113021 74 203 2.6 4.3 0.00 0.00 0.00 84 1019.8
20210723112520 74 203 2.6 5.2 0.00 0.00 0.00 84 1019.8
20210723112020 74 203 2.6 5.2 0.00 0.00 0.00 84 1019.7
20210723111520 74 203 3.5 6.1 0.00 0.00 0.00 84 1019.7
20210723111020 74 225 4.3 7.0 0.00 0.00 0.00 84 1019.7
20210723110520 74 225 3.5 6.1 0.00 0.00 0.00 83 1019.7
20210723110020 74 203 4.3 8.7 0.00 0.00 0.00 83 1019.8
20210723105522 74 203 2.6 6.1 0.00 0.00 0.00 83 1019.8
20210723105021 74 203 4.3 8.7 0.00 0.00 0.00 83 1019.8
20210723104522 74 203 4.3 8.7 0.00 0.00 0.00 84 1019.7
20210723104020 74 203 3.5 7.0 0.00 0.00 0.00 84 1019.7
20210723103521 75 203 3.5 7.8 0.00 0.00 0.00 83 1019.7
20210723103020 75 180 2.6 7.8 0.00 0.00 0.00 84 1019.6
20210723102520 75 203 3.5 6.1 0.00 0.00 0.00 84 1019.7
20210723102021 75 203 3.5 7.0 0.00 0.00 0.00 84 1019.7
20210723101522 75 203 4.3 8.7 0.00 0.00 0.00 84 1019.7
20210723101021 75 203 3.5 8.7 0.00 0.00 0.00 84 1019.7
20210723100520 75 203 4.3 8.7 0.00 0.00 0.00 84 1019.8
20210723100022 75 180 2.6 6.1 0.00 0.00 0.00 84 1019.7
20210723095610 75 180 2.6 5.2 0.00 0.00 0.00 84 1019.7
20210723095020 75 203 2.6 4.3 0.00 0.00 0.00 84 1019.8
20210723094526 75 180 2.6 4.3 0.00 0.00 0.00 84 1019.8
20210723094025 75 203 1.7 3.5 0.00 0.00 0.00 84 1019.7
20210723093520 75 180 2.6 4.3 0.00 0.00 0.00 83 1019.7
20210723093025 75 180 1.7 4.3 0.00 0.00 0.00 83 1019.6
20210723092521 75 203 2.6 5.2 0.00 0.00 0.00 83 1019.6
20210723092020 76 180 1.7 4.3 0.00 0.00 0.00 83 1019.6
20210723091520 76 180 1.7 3.5 0.00 0.00 0.00 83 1019.6
20210723091020 76 180 1.7 4.3 0.00 0.00 0.00 83 1019.6
20210723090525 76 180 2.6 5.2 0.00 0.00 0.00 83 1019.7
20210723090021 76 203 2.6 7.8 0.00 0.00 0.00 83 1019.7
20210723085520 76 180 3.5 7.8 0.00 0.00 0.00 83 1019.7
20210723085020 76 180 2.6 6.1 0.00 0.00 0.00 83 1019.6
20210723084521 76 180 2.6 7.8 0.00 0.00 0.00 83 1019.6
20210723084021 76 180 2.6 6.1 0.00 0.00 0.00 83 1019.5
20210723083520 76 180 2.6 6.1 0.00 0.00 0.00 84 1019.5
20210723083020 76 203 2.6 6.1 0.00 0.00 0.00 84 1019.5
20210723082520 76 180 2.6 6.1 0.00 0.00 0.00 84 1019.4
20210723082020 76 180 2.6 5.2 0.00 0.00 0.00 83 1019.4
20210723081523 76 180 2.6 6.1 0.00 0.00 0.00 83 1019.5
20210723081020 76 180 3.5 6.1 0.00 0.00 0.00 83 1019.5
20210723080520 76 180 2.6 7.0 0.00 0.00 0.00 83 1019.5
20210723080023 76 180 2.6 7.0 0.00 0.00 0.00 83 1019.6
20210723075520 76 180 2.6 5.2 0.00 0.00 0.00 84 1019.5
20210723075020 76 180 2.6 4.3 0.00 0.00 0.00 84 1019.5
20210723074522 75 180 2.6 5.2 0.00 0.00 0.00 84 1019.5
20210723074022 75 180 1.7 4.3 0.00 0.00 0.00 84 1019.5
20210723073520 75 180 0.9 1.7 0.00 0.00 0.00 84 1019.5
20210723073020 75 0.0 1.7 0.00 0.00 0.00 84 1019.5
20210723072520 75 180 0.9 1.7 0.00 0.00 0.00 84 1019.5
20210723072020 75 158 0.9 2.6 0.00 0.00 0.00 84 1019.5
20210723071520 75 180 0.9 2.6 0.00 0.00 0.00 84 1019.4
20210723071021 75 180 0.9 3.5 0.00 0.00 0.00 84 1019.4
20210723070520 76 180 0.9 2.6 0.00 0.00 0.00 84 1019.5
20210723070023 76 180 0.9 1.7 0.00 0.00 0.00 84 1019.5
20210723065524 76 180 0.9 1.7 0.00 0.00 0.00 83 1019.5
20210723065020 76 180 0.9 2.6 0.00 0.00 0.00 83 1019.6
20210723064521 76 180 1.7 2.6 0.00 0.00 0.00 83 1019.6
20210723064020 76 180 1.7 2.6 0.00 0.00 0.00 83 1019.5
20210723063519 76 180 0.9 2.6 0.00 0.00 0.00 84 1019.5
20210723063022 76 180 0.9 1.7 0.00 0.00 0.00 84 1019.4
20210723062520 76 180 0.9 2.6 0.00 0.00 0.00 83 1019.5
20210723062021 76 203 1.7 2.6 0.00 0.00 0.00 83 1019.4
20210723061520 76 180 0.9 3.5 0.00 0.00 0.00 83 1019.4
20210723061022 76 203 2.6 3.5 0.00 0.00 0.00 83 1019.4
20210723060520 76 203 2.6 3.5 0.00 0.00 0.00 83 1019.4
20210723060022 76 158 0.9 2.6 0.00 0.00 0.00 83 1019.4
20210723055520 76 0.0 0.9 0.00 0.00 0.00 83 1019.5
20210723055020 77 158 0.9 2.6 0.00 0.00 0.00 83 1019.4
20210723054520 77 158 0.9 2.6 0.00 0.00 0.00 83 1019.5
20210723054021 77 158 0.9 3.5 0.00 0.00 0.00 82 1019.5
20210723053520 77 158 0.9 2.6 0.00 0.00 0.00 82 1019.5
20210723053020 77 135 0.9 1.7 0.00 0.00 0.00 82 1019.5
20210723052523 77 135 0.9 2.6 0.00 0.00 0.00 82 1019.5
20210723052022 77 158 0.9 2.6 0.00 0.00 0.00 82 1019.5
20210723051520 77 158 0.9 1.7 0.00 0.00 0.00 82 1019.5
20210723051022 78 135 0.9 2.6 0.00 0.00 0.00 82 1019.5
20210723050520 78 135 0.9 2.6 0.00 0.00 0.00 82 1019.5
20210723050021 78 113 0.9 2.6 0.00 0.00 0.00 81 1019.5
20210723045522 78 135 0.9 2.6 0.00 0.00 0.00 81 1019.5
20210723045022 78 135 0.9 1.7 0.00 0.00 0.00 81 1019.6
20210723044524 78 113 1.7 3.5 0.00 0.00 0.00 81 1019.6
20210723044023 78 113 1.7 3.5 0.00 0.00 0.00 81 1019.5
20210723043525 78 135 1.7 2.6 0.00 0.00 0.00 81 1019.5
20210723043022 78 158 1.7 3.5 0.00 0.00 0.00 80 1019.5
20210723042522 78 135 0.9 1.7 0.00 0.00 0.00 80 1019.6
20210723042023 78 135 0.9 2.6 0.00 0.00 0.00 81 1019.5
20210723041524 79 135 0.9 2.6 0.00 0.00 0.00 80 1019.5
20210723041022 79 135 0.9 3.5 0.00 0.00 0.00 80 1019.5
20210723040522 79 135 0.9 3.5 0.00 0.00 0.00 80 1019.5
20210723040022 79 135 1.7 2.6 0.00 0.00 0.00 79 1019.4
20210723035522 79 113 1.7 2.6 0.00 0.00 0.00 79 1019.4
20210723035023 79 113 1.7 3.5 0.00 0.00 0.00 79 1019.3
20210723034628 79 135 1.7 3.5 0.00 0.00 0.00 79 1019.3
20210723034028 79 135 1.7 4.3 0.00 0.00 0.00 79 1019.2
20210723033524 79 135 1.7 3.5 0.00 0.00 0.00 79 1019.2
20210723033024 79 135 1.7 5.2 0.00 0.00 0.00 79 1019.2
20210723032524 79 135 1.7 2.6 0.00 0.00 0.00 80 1019.1
20210723032022 79 135 1.7 4.3 0.00 0.00 0.00 79 1019.2
20210723031522 80 135 1.7 3.5 0.00 0.00 0.00 80 1019.1
20210723031022 80 135 1.7 3.5 0.00 0.00 0.00 79 1019.1
20210723030521 80 135 2.6 5.2 0.00 0.00 0.00 79 1019.1
20210723030024 80 135 2.6 5.2 0.00 0.00 0.00 79 1019.0
20210723025521 80 135 2.6 3.5 0.00 0.00 0.00 79 1019.0
20210723025021 80 135 1.7 3.5 0.00 0.00 0.00 79 1019.0
20210723024521 80 135 2.6 3.5 0.00 0.00 0.00 79 1019.0
20210723024021 81 135 1.7 3.5 0.00 0.00 0.00 78 1018.9
20210723023522 81 113 1.7 3.5 0.00 0.00 0.00 78 1018.9
20210723023021 81 113 2.6 3.5 0.00 0.00 0.00 78 1018.8
20210723022522 81 113 1.7 3.5 0.00 0.00 0.00 77 1018.8
20210723022022 81 113 1.7 3.5 0.00 0.00 0.00 77 1018.7
20210723021523 82 135 1.7 3.5 0.00 0.00 0.00 76 1018.7
20210723021022 82 113 1.7 3.5 0.00 0.00 0.00 76 1018.7
20210723020522 82 113 2.6 3.5 0.00 0.00 0.00 75 1018.7
20210723020023 82 113 2.6 6.1 0.00 0.00 0.00 75 1018.6
20210723015609 83 113 2.6 6.1 0.00 0.00 0.00 74 1018.7
20210723015021 83 113 2.6 6.1 0.00 0.00 0.00 73 1018.6
20210723014522 83 113 2.6 6.1 0.00 0.00 0.00 73 1018.6
20210723014021 83 113 3.5 6.1 0.00 0.00 0.00 73 1018.6
20210723013521 84 113 3.5 6.1 0.00 0.00 0.00 72 1018.6
20210723013021 84 113 3.5 6.1 0.00 0.00 0.00 71 1018.5
20210723012521 84 113 3.5 6.1 0.00 0.00 0.00 71 1018.5
20210723012021 84 113 3.5 6.1 0.00 0.00 0.00 70 1018.4
20210723011521 85 113 2.6 7.0 0.00 0.00 0.00 70 1018.5
20210723011021 85 113 2.6 5.2 0.00 0.00 0.00 69 1018.4
20210723010521 86 113 2.6 5.2 0.00 0.00 0.00 68 1018.4
20210723010021 86 113 2.6 5.2 0.00 0.00 0.00 66 1018.3
20210723005600 86 113 1.7 3.5 0.00 0.00 0.00 66 1018.2
20210723005022 86 113 2.6 5.2 0.00 0.00 0.00 64 1018.0
20210723004523 87 113 2.6 6.1 0.00 0.00 0.00 65 1018.0
20210723004021 87 113 2.6 5.2 0.00 0.00 0.00 64 1018.0
20210723003521 87 113 2.6 6.1 0.00 0.00 0.00 63 1018.0
20210723003021 87 113 2.6 7.0 0.00 0.00 0.00 63 1017.9
20210723002521 87 113 3.5 6.1 0.00 0.00 0.00 62 1017.9
20210723002021 88 113 2.6 6.1 0.00 0.00 0.00 62 1018.0
20210723001522 88 113 1.7 5.2 0.00 0.00 0.00 63 1017.9
20210723001022 88 113 1.7 3.5 0.00 0.00 0.00 64 1017.9
20210723000521 87 113 2.6 5.2 0.00 0.00 0.00 61 1017.9
20210723000022 88 113 3.5 7.0 0.00 0.00 0.00 60 1017.9
20210722235607 88 113 3.5 7.0 0.00 0.00 0.00 59 1017.9
20210722235022 89 113 4.3 8.7 0.00 0.00 0.00 56 1017.9
20210722234522 89 113 3.5 7.8 0.00 0.00 0.00 58 1017.9
20210722234022 89 135 4.3 7.8 0.00 0.00 0.00 56 1018.0
20210722233522 90 135 3.5 7.0 0.00 0.00 0.00 55 1018.0
20210722233022 89 158 1.7 4.3 0.00 0.00 0.00 56 1018.0
20210722232522 88 113 3.5 7.8 0.00 0.00 0.00 57 1017.9
20210722232023 88 113 3.5 8.7 0.00 0.00 0.00 59 1018.0
20210722231523 88 113 2.6 5.2 0.00 0.00 0.00 58 1018.1
20210722231021 88 113 2.6 6.1 0.00 0.00 0.00 58 1018.1
20210722230529 89 113 2.6 7.0 0.00 0.00 0.00 57 1018.2
20210722230033 89 113 3.5 6.1 0.00 0.00 0.00 55 1018.2
20210722225525 90 135 3.5 8.7 0.00 0.00 0.00 55 1018.3
20210722225022 90 113 3.5 7.0 0.00 0.00 0.00 56 1018.3
20210722224521 90 113 1.7 6.1 0.00 0.00 0.00 56 1018.4
20210722224022 90 113 2.6 7.0 0.00 0.00 0.00 53 1018.4
20210722223521 91 135 2.6 6.1 0.00 0.00 0.00 50 1018.4
20210722223021 92 180 2.6 7.0 0.00 0.00 0.00 47 1018.4
20210722222521 92 158 2.6 8.7 0.00 0.00 0.00 49 1018.5
20210722222021 92 180 2.6 7.0 0.00 0.00 0.00 50 1018.5
20210722221523 92 180 3.5 7.8 0.00 0.00 0.00 48 1018.6
20210722221021 91 158 3.5 7.8 0.00 0.00 0.00 49 1018.5
20210722220521 92 225 4.3 7.8 0.00 0.00 0.00 46 1018.6
20210722220021 93 225 3.5 6.1 0.00 0.00 0.00 46 1018.7
20210722215521 92 113 1.7 5.2 0.00 0.00 0.00 52 1018.8
20210722215021 92 135 2.6 7.8 0.00 0.00 0.00 51 1018.9
20210722214526 93 203 1.7 5.2 0.00 0.00 0.00 50 1018.9
20210722214021 93 135 1.7 6.1 0.00 0.00 0.00 49 1018.9
20210722213521 92 135 3.5 11.3 0.00 0.00 0.00 48 1018.9
20210722213021 93 158 2.6 6.1 0.00 0.00 0.00 50 1019.0
20210722212523 92 180 2.6 7.0 0.00 0.00 0.00 49 1019.1
20210722212021 92 203 4.3 11.3 0.00 0.00 0.00 49 1019.1
20210722211522 91 135 2.6 7.8 0.00 0.00 0.00 49 1019.1
20210722211021 91 203 4.3 10.4 0.00 0.00 0.00 51 1019.1
20210722210521 91 203 5.2 10.4 0.00 0.00 0.00 47 1019.2
20210722210025 92 225 3.5 8.7 0.00 0.00 0.00 46 1019.3
20210722205521 93 113 2.6 7.8 0.00 0.00 0.00 48 1019.4
20210722205021 93 135 2.6 7.8 0.00 0.00 0.00 48 1019.5
20210722204521 92 113 2.6 6.1 0.00 0.00 0.00 46 1019.5
20210722204021 92 113 5.2 10.4 0.00 0.00 0.00 48 1019.5
20210722203521 92 113 4.3 11.3 0.00 0.00 0.00 47 1019.6
20210722203023 92 180 3.5 7.0 0.00 0.00 0.00 45 1019.7
20210722202521 92 158 2.6 7.8 0.00 0.00 0.00 49 1019.8
20210722202021 92 113 3.5 7.0 0.00 0.00 0.00 51 1019.8
20210722201522 91 225 4.3 9.6 0.00 0.00 0.00 48 1019.9
20210722201021 92 203 2.6 6.1 0.00 0.00 0.00 49 1019.9
20210722200520 92 225 2.6 6.1 0.00 0.00 0.00 46 1020.0
20210722200021 92 158 2.6 6.1 0.00 0.00 0.00 50 1020.1
20210722195601 92 135 2.6 7.8 0.00 0.00 0.00 50 1020.1
20210722195021 92 158 3.5 9.6 0.00 0.00 0.00 53 1020.2
20210722194527 92 113 4.3 7.8 0.00 0.00 0.00 51 1020.2
20210722194021 92 135 2.6 7.0 0.00 0.00 0.00 51 1020.2
20210722193521 91 113 2.6 7.0 0.00 0.00 0.00 51 1020.3
20210722193022 91 135 3.5 10.4 0.00 0.00 0.00 52 1020.3
20210722192521 91 113 2.6 7.0 0.00 0.00 0.00 54 1020.4
20210722192023 90 113 2.6 7.0 0.00 0.00 0.00 53 1020.4
20210722191521 90 113 3.5 7.0 0.00 0.00 0.00 55 1020.5
20210722191021 90 135 4.3 9.6 0.00 0.00 0.00 50 1020.5
20210722190521 91 135 3.5 7.0 0.00 0.00 0.00 53 1020.6
20210722190021 90 180 2.6 8.7 0.00 0.00 0.00 52 1020.6
20210722185521 90 135 3.5 8.7 0.00 0.00 0.00 54 1020.7
20210722185021 90 180 2.6 5.2 0.00 0.00 0.00 56 1020.7
20210722184524 90 135 3.5 7.8 0.00 0.00 0.00 56 1020.7
20210722184024 90 135 2.6 7.0 0.00 0.00 0.00 58 1020.8
20210722183524 89 135 3.5 7.0 0.00 0.00 0.00 59 1020.8
20210722183023 89 113 4.3 8.7 0.00 0.00 0.00 59 1020.8
20210722182523 89 113 2.6 5.2 0.00 0.00 0.00 57 1020.9
20210722182020 88 158 3.5 7.8 0.00 0.00 0.00 58 1020.9
20210722181520 88 158 3.5 10.4 0.00 0.00 0.00 60 1021.0
20210722181020 87 225 2.6 5.2 0.00 0.00 0.00 59 1021.0
20210722180521 87 225 3.5 6.1 0.00 0.00 0.00 59 1021.0
20210722180021 87 203 6.1 10.4 0.00 0.00 0.00 59 1021.1
20210722175555 87 203 1.7 5.2 0.00 0.00 0.00 63 1021.2
20210722175022 86 203 3.5 5.2 0.00 0.00 0.00 61 1021.2
20210722174522 86 203 3.5 7.0 0.00 0.00 0.00 60 1021.2
20210722174021 86 225 2.6 7.8 0.00 0.00 0.00 60 1021.2
20210722173521 86 203 0.9 2.6 0.00 0.00 0.00 59 1021.2
20210722173021 86 203 2.6 6.1 0.00 0.00 0.00 59 1021.3
20210722172523 87 203 3.5 7.0 0.00 0.00 0.00 60 1021.3
20210722172030 87 225 3.5 9.6 0.00 0.00 0.00 58 1021.3
20210722171523 87 203 2.6 9.6 0.00 0.00 0.00 59 1021.4
20210722171023 87 180 3.5 7.0 0.00 0.00 0.00 60 1021.4
20210722170525 87 158 2.6 6.1 0.00 0.00 0.00 63 1021.5
20210722170021 86 135 2.6 5.2 0.00 0.00 0.00 63 1021.5
20210722165521 85 203 2.6 5.2 0.00 0.00 0.00 61 1021.5
20210722165021 86 225 3.5 7.0 0.00 0.00 0.00 60 1021.5
20210722164523 86 158 1.7 4.3 0.00 0.00 0.00 64 1021.6